Regional Weather Roundup
Issued by NWS

Home | Current Version | Previous Version | Text Only | Print | Product List | Glossary On
Versions: 1 2 3 4 5 6 7 8 9 10 11 12 13 14 15 16 17 18 19 20 21 22 23 24 25 26 27 28 29 30 31 32 33 34 35 36 37 38 39 40 41 42 43 44 45 46 47 48 49 50
000
ASUS43 KMKX 221700
RWRWI

WISCONSIN REGIONAL WEATHER ROUNDUP
NATIONAL WEATHER SERVICE MILWAUKEE/SULLIVAN WI
1200 PM CDT TUE JUL 22 2014

NOTE: "FAIR" INDICATES FEW OR NO CLOUDS BELOW 12,000 FEET WITH NO
SIGNIFICANT WEATHER AND/OR OBSTRUCTIONS TO VISIBILITY.

WIZ001-002-006>008-014>016-023>028-221800-
NORTHWEST WISCONSIN

CITY           SKY/WX    TMP DP  RH WIND       PRES   REMARKS
SUPERIOR ARPT  CLOUDY    73  64  74 NW14G21   29.91S
ASHLAND        CLOUDY    74  64  71 NW9G28    29.89S
HAYWARD        CLOUDY    73  63  70 VRB7G17   29.94R
SIREN          CLOUDY    72  61  69 N12G18    29.96R
RICE LAKE      CLOUDY    76  63  63 NW13      29.97R
LADYSMITH      PTSUNNY   77  65  66 NW16G24   29.94R
EAU CLAIRE     NOT AVBL
MENOMONIE      CLOUDY    79  65  62 NW10      29.95R HX  81
NEW RICHMOND   CLOUDY    77  64  65 NW13G18   29.99R
OSCEOLA        CLOUDY    75  64  68 NW12      30.01R
$$

WIZ003>005-009-010-017-018-221800-
NORTH CENTRAL WISCONSIN

CITY           SKY/WX    TMP DP  RH WIND       PRES   REMARKS
WOODRUFF       PTSUNNY   78  66  65 NW16G23   29.90R HX  80
RHINELANDER    MOSUNNY   79  65  62 NW9G22    29.90R HX  81
EAGLE RIVER    CLOUDY    76  62  62 W15G28    29.88R
LAND O LAKES   CLOUDY    75  64  69 W15G25    29.89R
PHILLIPS       PTSUNNY   76  65  68 NW12G17   29.91S
TOMAHAWK       MOSUNNY   78  65  63 W13G21    29.90S HX  80
MEDFORD        MOSUNNY   79  67  68 NW13      29.91R HX  81
MERRILL        SUNNY     82  67  60 NW17G24   29.87R HX  84
$$

WIZ029-030-035-036-043>047-221800-
CENTRAL WISCONSIN

CITY           SKY/WX    TMP DP  RH WIND       PRES   REMARKS
WAUSAU         PTSUNNY   85  70  60 W15G29    29.86R HX  89
MOSINEE        PTSUNNY   84  72  65 W14       29.89S HX  89
MARSHFIELD     PTSUNNY   84  72  67 NW20      29.90R HX  89
STEVENS POINT  PTSUNNY   83  72  69 W10G17    29.88F HX  87
WAUPACA        MOSUNNY   87  71  59 SW13G20   29.88S HX  93
WAUTOMA        NOT AVBL
WISC RAPIDS    MOSUNNY   88  72  58 W14       29.90R HX  94
CAMP DOUGLAS   NOT AVBL
$$

WIZ011>013-019>022-031-037>040-048>050-221800-
NORTHEAST WISCONSIN

CITY           SKY/WX    TMP DP  RH WIND       PRES   REMARKS
ANTIGO         CLOUDY    81  72  73 W15G25    29.87F HX  85
STURGEON BAY   PTSUNNY   84  72  65 SW18G26   29.85S HX  89
GREEN BAY      MOSUNNY   85  73  67 SW13G22   29.86F HX  91
MANITOWOC      NOT AVBL
APPLETON       PTSUNNY   82  70  65 SW16G22   29.89F HX  86
CLINTONVILLE   CLOUDY    82  70  65 W13G22    29.86S HX  86
OSHKOSH        MOSUNNY   85  73  67 SW16G26   29.87F HX  91
$$

WIZ032>034-041-042-053>061-221800-
SOUTHWEST WISCONSIN

CITY           SKY/WX    TMP DP  RH WIND       PRES   REMARKS
LA CROSSE      MOSUNNY   88  74  63 NW7       29.90R HX  96
SPARTA         MOSUNNY   85  70  60 W8        29.90S HX  90
VIROQUA        FAIR      84  74  73 SW7       29.93F HX  91
BOSCOBEL       CLOUDY    86  74  67 SW8       29.92S HX  94
PRAIRIE DU CHI CLOUDY    85  72  66 SW8       29.92S HX  91
PLATTEVILLE    PTSUNNY   84  76  75 SW10      29.97F HX  93
$$

WIZ056-057-062-063-064-067-068-221800-
SOUTH CENTRAL WISCONSIN

CITY           SKY/WX    TMP DP  RH WIND       PRES   REMARKS
BARABOO/DELLS  PTSUNNY   84  71  63 SW13      29.93F HX  89
LONE ROCK      NOT AVBL
WATERTOWN      PTSUNNY   83  73  69 SW15G21   29.95S HX  89
MADISON        PTSUNNY   84  73  69 SW8       29.93F HX  90
MIDDLETON      PTSUNNY   85  71  63 SW13      29.95F HX  89
MONROE         CLOUDY    82  72  69 SW14G20   29.98S HX  87
JANESVILLE     CLOUDY    86  70  58 SW15G22   29.96  HX  90
$$

WIZ051-052-058>065-066-070>072-221800-
SOUTHEAST WISCONSIN

CITY           SKY/WX    TMP DP  RH WIND       PRES   REMARKS
MILWAUKEE      CLOUDY    84  69  60 SW18      29.95F HX  88
WAUKESHA         N/A     81  70  69 SW10      29.97F HX  84
MILWAUKEE/TIMM MOSUNNY   82  68  61 SW12G22   29.95F HX  85
RACINE         PTSUNNY   86  70  58 SW12G20   29.98S HX  90
BURLINGTON     PTSUNNY   80  70  72 SW12G18   29.97S HX  83
KENOSHA        PTSUNNY   84  70  62 SW14      29.97S HX  88
FOND DU LAC    CLOUDY    84  71  65 SW12      29.91F HX  89
SHEBOYGAN      PTSUNNY   85  72  65 SW20G26   29.91F HX  91
WEST BEND      MOSUNNY   82  68  61 SW15G21   29.94F HX  85
JUNEAU         CLOUDY    82  56  41 SW16      29.95F HX  81
$$

LSZ147-162-221800-
LAKE SUPERIOR

STATION/POSITION TIME  TEMP    WIND        PRES    WAVE
                       AIR SEA DIR/SP/G            HT/PER
                 (UTC) (F)     (DEG/KT/KT) (MB)    (FT/S)
W MID LAKE BUOY  1550   50 40  250/ 17/ 19 1008.1R   2/ 4
PORT WING        1600   68     260/ 11/ 16 1012.5R
SAXON HARBOR     1640          290/ 11/ 17 1012.2R
$$

LMZ867-665-643>646-221800-
LAKE MICHIGAN

STATION/POSITION TIME  TEMP    WIND        PRES    WAVE
                       AIR SEA DIR/SP/G            HT/PER
                 (UTC) (F)     (DEG/KT/KT) (MB)    (FT/S)
N MID LAKE BUOY  1550   62 57  200/ 23/ 27 1009.1F   5/ 5
NORTHPORT PIER   1600   70     150/ 12/ 22 1009.5F
KEWAUNEE LAKESHO 1600   57     170/ 16/ 18 1012.4F
SHEBOYGAN LAKESH 1600   69     170/ 17/ 18 1013.1S
PORT WASHINGTON  1640   63     150/  6/ 10 1014.2S
ATWATER BUOY     1600   68     190/  8     1015.2R
MILWAUKEE LAKESH 1600   80     220/ 16/ 22   N/A
S MID LAKE BUOY  1550   70 68  180/ 16/ 17 1015.4F   2/ 4
KENOSHA   LAKESH 1600   83     210/ 11/ 19   N/A
$$

TC  - TEMPERATURE IN CELSIUS
VSB - VISIBILITY IN STATUTE MILES
WCI - WIND CHILL INDEX
HX  - HEAT INDEX



USA.gov is the U.S. government's official web portal to all federal, state and local government web resources and services.